    Observer details:
    F51 Pan-STARRS 1, Haleakala.  Observers J. Bulger, K. Chambers, B. Gibson,
        T. Goggia, T. Lowe, E. Magnier, N. Primak, A. Schultz, J. Thiel,
        S. Watters, M. Willman.  Measurers S. Chastel, M. Huber, R. Jedicke,
        R. Wainscoat, R. Weryk.  1.8-m Ritchey-Chretien + CCD.
    
    Orbital elements:
    2015 XW379
    Epoch 2019 Apr. 27.0 TT = JDT 2458600.5                 MPC
    M 328.85422              (2000.0)            P               Q
    n   0.00670545     Peri.   50.10748     -0.95922913     +0.25565314
    a  27.8516468      Node   144.22811     -0.27781594     -0.93124952
    e   0.3782233      Incl.   11.89642     +0.05194013     -0.25964552
    P 146.99           H    7.0           G   0.15           U   0
    Residuals in seconds of arc
    100103 F51  0.1+  0.0     131215 F51  0.0   0.0     160226 F51  0.1-  0.0
    100103 F51  0.0   0.0     131215 F51  0.0   0.0     160421 F51  0.0   0.0
    100111 F51  0.0   0.0     131215 F51  0.0   0.0     160422 F51  0.1+  0.0
    100111 F51  0.0   0.0     140101 F51  0.2+  0.0     161110 F51  0.0   0.0
    100124 F51  0.2-  0.1-    140101 F51  0.1+  0.1-    161110 F51  0.0   0.0
    100215 F51  0.3-  0.1-    140111 F51  0.0   0.0     161110 F51  0.0   0.0
    100301 F51  0.1+  0.2-    140125 F51  0.1+  0.0     161110 F51  0.0   0.0
    100301 F51  0.3+  0.3-    140125 F51  0.1+  0.0     170203 F51  0.0   0.0
    101108 F51  0.0   0.0     141002 F51  0.0   0.0     170203 F51  0.0   0.0
    101215 F51  0.1+  0.1+    141002 F51  0.0   0.0     170203 F51  0.0   0.0
    101215 F51  0.1+  0.1+    141002 F51  0.0   0.1+    170203 F51  0.0   0.1+
    110917 F51  0.0   0.5+    141002 F51  0.0   0.0     170409 F51  0.1-  0.1-
    111001 F51  0.0   0.2+    141203 F51  0.1-  0.0     170409 F51  0.0   0.0
    111001 F51  0.1+  0.0     150121 F51  0.0   0.0     170409 F51  0.1+  0.1-
    120125 F51  0.0   0.1+    150121 F51  0.0   0.0     170409 F51  0.0   0.1+
    120131 F51  0.1+  0.0     150121 F51  0.0   0.0     171122 F51  0.0   0.0
    120311 F51  0.1-  0.0     150121 F51  0.0   0.0     171122 F51  0.0   0.0
    120409 F51  0.2-  0.1+    150121 F51  0.0   0.0     171122 F51  0.0   0.0
    121028 F51  0.3-  0.1-    150121 F51  0.0   0.0     171122 F51  0.0   0.0
    121028 F51  0.1-  0.1-    150121 F51  0.0   0.0     171214 F51  0.1+  0.0
    121028 F51  0.0   0.0     150121 F51  0.0   0.0     171214 F51  0.1+  0.0
    121028 F51  0.0   0.1+    150218 F51  0.0   0.0     171214 F51  0.1+  0.2+
    121115 F51  0.0   0.0     150218 F51  0.0   0.0     171214 F51  0.1-  0.1+
    121115 F51  0.1-  0.1+    150218 F51  0.0   0.0     171223 F51  0.0   0.0
    130107 F51  0.1-  0.2-    150218 F51  0.0   0.0     171223 F51  0.2-  0.1+
    130107 F51  0.1+  0.1+    151211 G36  0.1+  0.2+    171223 F51  0.1+  0.2-
    130107 F51  0.1+  0.1-    151211 G36  0.2-  0.1+    171224 F51  0.0   0.0
    130107 F51  0.0   0.0     151211 G36  0.5-  0.2+    171224 F51  0.0   0.0
    130212 F51  0.1-  0.1-    151211 G36  0.6+  0.2+    171224 F51  0.0   0.0
    130212 F51  0.0   0.0     151212 G36  0.3+  0.1+    171224 F51  0.0   0.0
    130308 F51  0.0   0.1+    151212 G36  0.3-  0.1-    180116 F51  0.0   0.0
    130308 F51  0.1+  0.1+    151212 G36  0.0   0.1-    180116 F51  0.0   0.0
    130430 F51  0.0   0.0     151212 G36  0.4-  0.0     180116 F51  0.1-  0.0
    130430 F51  0.0   0.0     160131 F51  0.0   0.0     180116 F51  0.0   0.0
    130430 F51  0.0   0.0     160131 F51  0.0   0.0     180120 F51  0.0   0.0
    130430 F51  0.0   0.0     160131 F51  0.0   0.0     180120 F51  0.0   0.0
    131117 F51  0.1+  0.0     160212 F51  0.0   0.0     180120 F51  0.0   0.0
    131211 F51  0.0   0.0     160212 F51  0.0   0.0     180120 F51  0.0   0.0
    131211 F51  0.0   0.0     160212 F51  0.0   0.0     180218 F51  0.0   0.0
    131211 F51  0.1+  0.0     160212 F51  0.0   0.0     180218 F51  0.1+  0.0
    131211 F51  0.0   0.0     160226 F51  0.1-  0.0     180218 F51  0.0   0.1-
    131211 F51  0.0   0.0     160226 F51  0.0   0.1-
    131215 F51  0.0   0.0     160226 F51  0.1-  0.0
    
    Ephemeris:
    2015 XW379               a,e,i = 27.85, 0.38, 12                 q = 17.318
    Date    TT    R. A. (2000) Decl.     Delta      r     Elong.  Phase     V
    2019 03 18    08 31 03.5 +15 24 58  20.0702 20.7152   129.3     2.1    20.3
    ...
    2019 04 02    08 30 12.2 +15 32 23  20.2660 20.6970   114.3     2.5    20.4
    ...
    2019 04 10    08 30 01.9 +15 35 24  20.3827 20.6872   106.4     2.7    20.4
    ...
    2019 04 16    08 30 02.3 +15 37 12  20.4738 20.6799   100.5     2.7    20.4
    2019 04 17    08 30 03.1 +15 37 27  20.4892 20.6787    99.5     2.7    20.4
    2019 04 18    08 30 04.0 +15 37 42  20.5046 20.6775    98.5     2.8    20.4
    ...
    2019 04 24    08 30 13.8 +15 38 56  20.5980 20.6702    92.7     2.8    20.4
    ...
    2019 05 02    08 30 37.5 +15 39 54  20.7231 20.6605    85.0     2.8    20.5
    ...
    2019 05 17    08 31 54.2 +15 39 37  20.9517 20.6423    70.9     2.7    20.5
    
    A. U. Tomatic                (C) Copyright 2019 MPC           M.P.E.C. 2019-H08
    

    Read MPEC 2019-H07 Read MPEC 2019-H09


    MPEC number:

    Enter an MPEC number in one of the following forms:

    • 1997-B01 (the full form)
    • J97B01 (the packed version of the full form)
    • B01 (the abbreviated form)